Tracking 19795 objects as of 18-Jul-2019
HD Live streaming from Space Station
objects crossing your sky now

CZ-4 DEB

Track CZ-4 DEB now!
10-day predictions


NORAD ID: 26200
Int'l Code: 1999-057CN
Perigee: 658.0 km
Apogee: 736.5 km
Inclination: 98.0 °
Period: 98.6 minutes
Semi major axis: 7068 km
RCS: 0.038 m2 (small)
Launch date: October 14, 1999
Source: People's Republic of China (PRC)
Launch site: Taiyaun Space Center, China (TSC)

Note: This is SATELLITE DEBRIS
aabbcc
Your satellite tracking list
Your tracking list is empty




NASA's NSSDC Master Catalog

Two Line Element Set (TLE):
1 26200U 99057CN  19198.89275173 +.00000155 +00000-0 +40417-4 0  9991
2 26200 097.9795 168.7418 0055538 354.7623 005.2990 14.60953859026372
Source of the keplerian elements: AFSPC